Location: *
(50.8667°S, 179.2667°W)
Time: 05:41:23
(UTC+00:00)

H-2A R/B - Pass Details

Date: 02 October 2023
Orbit: 731 x 835 km, 98.2° (Epoch: 10 December)

Event Time Altitude Azimuth Distance (km) Brightness Sun altitude
Rises 15:11:31 0° 35° (NE) 3,267 5.3 -20.2°
Reaches altitude 10° 15:13:55 10° 41° (NE) 2,331 4.6 -19.9°
Maximum altitude 15:18:48 46° 112° (ESE) 1,023 3.1 -19.2°
Drops below altitude 10° 15:23:38 10° 184° (S) 2,301 4.8 -18.6°
Sets 15:25:59 0° 190° (S) 3,222 5.5 -18.2°
